Regional Weather Roundup
Issued by NWS

Home | Current Version | Previous Version | Text Only | Print | Product List | Glossary Off
Versions: 1 2 3 4 5 6 7 8 9 10 11 12 13 14 15 16 17 18 19 20 21 22 23 24 25 26 27 28 29 30 31 32 33 34 35 36 37 38 39 40 41 42 43 44 45 46 47 48 49 50

488
ASUS43 KLSX 201307
RWRMO

WEATHER SUMMARY FOR MISSOURI
NATIONAL WEATHER SERVICE SPRINGFIELD MO
700 AM CST MON FEB 20 2017

NOTE: "FAIR" INDICATES FEW OR NO CLOUDS BELOW 12,000 FEET WITH NO
       SIGNIFICANT WEATHER AND/OR OBSTRUCTIONS TO VISIBILITY.
       CURRENT SKY AND/OR WEATHER CONDITIONS ARE NOT AVAILABLE FOR
       CHILLICOTHE AND FARMINGTON.

MOZ001>031-035>038-043-044-053-054-201400-
...NORTHERN AND WESTERN MISSOURI...

CITY           SKY/WX    TMP DP  RH WIND       PRES   REMARKS
KANSAS CTY INT CLOUDY    62  55  77 SE15      29.81F
KANSAS C DTWN  CLOUDY    63  55  75 SE10G17   29.82F
LEE`S SUMMIT   CLOUDY    61  55  81 SE9       29.84F
ST JOSEPH      CLOUDY    63  56  78 SE14      29.81S
CHILLICOTHE      N/A     60  55  83 SE8       29.88R
KIRKSVILLE     MOCLDY    56  54  93 SE10      29.93S

$$
MOZ066>068-077>081-088>096-101>105-201400-
...SOUTHWEST MISSOURI...

CITY           SKY/WX    TMP DP  RH WIND       PRES   REMARKS
SPRINGFIELD    PTCLDY    60  54  80 SE21G28   29.89F
JOPLIN         TSTM      62  58  86 SW13      29.89R FOG
BRANSON        MOCLDY    55  55 100 E12       29.94F

$$
MOZ032>034-039>042-045>050-055>058-069>072-201400-
...CENTRAL MISSOURI...

CITY           SKY/WX    TMP DP  RH WIND       PRES   REMARKS
COLUMBIA       CLOUDY    60  55  83 S16       29.94S
JEFFERSON CITY CLOUDY    61  53  75 SE13      29.94F
ROLLA          CLEAR     60  52  74 S14G22    29.99R
SEDALIA        PTCLDY    64  55  72 SE17      29.88F
WHITEMAN AFB   CLOUDY    62  59  87 S15       29.86S
WARRENSBURG    MOCLDY    61  52  72 SE9       29.85F
OSAGE BEACH    PTCLDY    61  53  75 SE9       29.94F

$$
MOZ051-052-059>065-201400-
...EAST CENTRAL MISSOURI...

CITY           SKY/WX    TMP DP  RH WIND       PRES   REMARKS
ST LOUIS INTL  CLOUDY    54  50  86 SE13      30.02F FOG
SPIRIT OF STL  CLOUDY    49  49 100 CALM      30.02R FOG
ST CHARLES     PTCLDY    50  50 100 E12       30.03S FOG

$$
MOZ072>076-082>087-097>100-106>115-201400-
...SOUTH CENTRAL AND SOUTHEAST MISSOURI...

CITY           SKY/WX    TMP DP  RH WIND       PRES   REMARKS
CAPE GIRARDEAU MOCLDY    51  47  86 E3        30.08R
FARMINGTON     CLOUDY    54  50  86 S6        30.07R
POPLAR BLUFF   PTCLDY    50  49  96 CALM      30.07R FOG
WEST PLAINS    CLEAR     56  51  84 SE7       30.03S

$$



USA.gov is the U.S. government's official web portal to all federal, state and local government web resources and services.